Time,TemperatureF,DewpointF,PressureIn,WindDirection,WindDirectionDegrees,WindSpeedMPH,WindSpeedGustMPH,Humidity,HourlyPrecipIn,Conditions,Clouds,dailyrainin,SoftwareType,DateUTC
2013-03-24 00:01:00,51.5,48.0,29.92,East,79,2.0,6.0,86,0.00,,,0.00,weatherlink.com 1.10,2013-03-24 04:01:00,
2013-03-24 00:17:00,51.7,48.0,29.91,East,93,1.0,5.0,87,0.00,,,0.00,weatherlink.com 1.10,2013-03-24 04:17:00,
2013-03-24 00:32:00,51.8,48.0,29.90,NE,39,4.0,5.0,87,0.00,,,0.00,weatherlink.com 1.10,2013-03-24 04:32:00,
2013-03-24 00:47:00,51.9,49.0,29.91,ENE,77,1.0,4.0,88,0.00,,,0.00,weatherlink.com 1.10,2013-03-24 04:47:00,
2013-03-24 01:02:00,52.1,49.0,29.90,East,82,2.0,6.0,88,0.00,,,0.00,weatherlink.com 1.10,2013-03-24 05:02:00,
2013-03-24 01:17:00,52.1,49.0,29.89,ENE,64,3.0,4.0,88,0.00,,,0.00,weatherlink.com 1.10,2013-03-24 05:17:00,
2013-03-24 01:32:00,52.2,49.0,29.88,East,85,4.0,7.0,88,0.00,,,0.00,weatherlink.com 1.10,2013-03-24 05:32:00,
2013-03-24 01:47:00,52.3,49.0,29.89,ESE,102,4.0,5.0,88,0.00,,,0.00,weatherlink.com 1.10,2013-03-24 05:47:00,
2013-03-24 02:02:00,52.4,49.0,29.89,East,84,0.0,6.0,88,0.00,,,0.00,weatherlink.com 1.10,2013-03-24 06:02:00,
2013-03-24 02:17:00,52.3,49.0,29.88,ESE,111,2.0,5.0,88,0.00,,,0.00,weatherlink.com 1.10,2013-03-24 06:17:00,
2013-03-24 02:32:00,52.3,49.0,29.87,East,84,2.0,4.0,88,0.00,,,0.00,weatherlink.com 1.10,2013-03-24 06:32:00,
2013-03-24 02:47:00,52.4,49.0,29.86,East,98,2.0,4.0,88,0.00,,,0.00,weatherlink.com 1.10,2013-03-24 06:47:00,
2013-03-24 03:02:00,52.4,49.0,29.85,ESE,111,7.0,7.0,88,0.00,,,0.00,weatherlink.com 1.10,2013-03-24 07:02:00,
2013-03-24 03:17:00,52.8,49.0,29.84,ESE,113,1.0,8.0,87,0.00,,,0.00,weatherlink.com 1.10,2013-03-24 07:17:00,
2013-03-24 03:35:00,52.6,49.0,29.79,ENE,66,4.0,11.0,88,0.01,,,0.01,weatherlink.com 1.10,2013-03-24 07:35:00,
2013-03-24 03:47:00,52.5,49.0,29.82,ENE,62,4.0,9.0,88,0.01,,,0.01,weatherlink.com 1.10,2013-03-24 07:47:00,
2013-03-24 04:03:00,52.1,49.0,29.80,NE,54,2.0,7.0,90,0.02,,,0.02,weatherlink.com 1.10,2013-03-24 08:03:00,
2013-03-24 04:17:00,51.4,50.0,29.79,ESE,103,5.0,8.0,93,0.07,,,0.07,weatherlink.com 1.10,2013-03-24 08:17:00,
2013-03-24 04:32:00,51.1,50.0,29.79,NE,43,4.0,9.0,94,0.08,,,0.09,weatherlink.com 1.10,2013-03-24 08:32:00,
2013-03-24 04:47:00,51.0,50.0,29.77,East,93,4.0,13.0,95,0.11,,,0.12,weatherlink.com 1.10,2013-03-24 08:47:00,
2013-03-24 05:02:00,51.0,50.0,29.75,NNE,15,7.0,12.0,95,0.11,,,0.13,weatherlink.com 1.10,2013-03-24 09:02:00,
2013-03-24 05:17:00,51.3,50.0,29.72,ESE,102,8.0,17.0,96,0.06,,,0.13,weatherlink.com 1.10,2013-03-24 09:17:00,
2013-03-24 05:32:00,51.8,51.0,29.72,SE,139,2.0,14.0,96,0.03,,,0.13,weatherlink.com 1.10,2013-03-24 09:32:00,
2013-03-24 05:47:00,52.0,51.0,29.71,ENE,63,5.0,12.0,96,0.02,,,0.14,weatherlink.com 1.10,2013-03-24 09:47:00,
2013-03-24 06:02:00,52.1,51.0,29.72,NE,46,5.0,17.0,96,0.01,,,0.14,weatherlink.com 1.10,2013-03-24 10:02:00,
2013-03-24 06:17:00,52.0,51.0,29.68,East,97,6.0,20.0,96,0.06,,,0.19,weatherlink.com 1.10,2013-03-24 10:17:00,
2013-03-24 06:32:00,51.8,51.0,29.71,NNE,17,3.0,9.0,96,0.10,,,0.23,weatherlink.com 1.10,2013-03-24 10:32:00,
2013-03-24 06:47:00,51.6,51.0,29.73,ESE,103,5.0,11.0,96,0.17,,,0.31,weatherlink.com 1.10,2013-03-24 10:47:00,
2013-03-24 07:03:00,51.3,51.0,29.71,East,79,5.0,13.0,97,0.27,,,0.41,weatherlink.com 1.10,2013-03-24 11:03:00,
2013-03-24 07:18:00,50.9,50.0,29.69,North,11,6.0,13.0,97,0.34,,,0.53,weatherlink.com 1.10,2013-03-24 11:18:00,
2013-03-24 07:33:00,50.3,50.0,29.70,North,6,4.0,14.0,97,0.41,,,0.64,weatherlink.com 1.10,2013-03-24 11:33:00,
2013-03-24 07:48:00,49.9,49.0,29.68,NNE,26,5.0,16.0,97,0.39,,,0.71,weatherlink.com 1.10,2013-03-24 11:48:00,
2013-03-24 08:03:00,49.7,49.0,29.69,North,357,3.0,10.0,97,0.37,,,0.79,weatherlink.com 1.10,2013-03-24 12:03:00,
2013-03-24 08:18:00,49.3,49.0,29.69,ENE,69,4.0,13.0,97,0.39,,,0.93,weatherlink.com 1.10,2013-03-24 12:18:00,
2013-03-24 08:33:00,49.3,49.0,29.69,NNE,18,5.0,16.0,98,0.40,,,1.04,weatherlink.com 1.10,2013-03-24 12:33:00,
2013-03-24 08:48:00,49.2,49.0,29.70,WNW,301,3.0,13.0,98,0.46,,,1.18,weatherlink.com 1.10,2013-03-24 12:48:00,
2013-03-24 09:03:00,49.1,49.0,29.69,East,87,5.0,13.0,98,0.46,,,1.26,weatherlink.com 1.10,2013-03-24 13:03:00,
2013-03-24 09:18:00,49.5,49.0,29.69,NE,46,7.0,22.0,98,0.44,,,1.38,weatherlink.com 1.10,2013-03-24 13:18:00,
2013-03-24 09:33:00,49.7,49.0,29.69,NNW,343,3.0,25.0,98,0.53,,,1.58,weatherlink.com 1.10,2013-03-24 13:33:00,
2013-03-24 09:48:00,49.9,49.0,29.67,NE,56,4.0,10.0,98,0.57,,,1.75,weatherlink.com 1.10,2013-03-24 13:48:00,
2013-03-24 10:03:00,50.3,50.0,29.67,NNW,346,7.0,15.0,98,0.58,,,1.85,weatherlink.com 1.10,2013-03-24 14:03:00,
2013-03-24 10:18:00,50.9,50.0,29.66,ENE,60,7.0,23.0,98,0.52,,,1.90,weatherlink.com 1.10,2013-03-24 14:18:00,
2013-03-24 10:33:00,51.1,51.0,29.64,ESE,106,14.0,16.0,98,0.39,,,1.98,weatherlink.com 1.10,2013-03-24 14:33:00,
2013-03-24 10:48:00,51.5,51.0,29.62,ENE,70,15.0,19.0,99,0.31,,,2.06,weatherlink.com 1.10,2013-03-24 14:48:00,
2013-03-24 11:03:00,52.4,52.0,29.61,South,169,4.0,22.0,99,0.25,,,2.10,weatherlink.com 1.10,2013-03-24 15:03:00,
2013-03-24 11:18:00,54.6,54.0,29.55,East,82,13.0,19.0,99,0.26,,,2.17,weatherlink.com 1.10,2013-03-24 15:18:00,
2013-03-24 11:33:00,56.3,56.0,29.51,ESE,105,7.0,18.0,99,0.19,,,2.18,weatherlink.com 1.10,2013-03-24 15:33:00,
2013-03-24 11:48:00,57.2,57.0,29.57,ESE,119,6.0,15.0,99,0.12,,,2.18,weatherlink.com 1.10,2013-03-24 15:48:00,
2013-03-24 12:03:00,57.4,57.0,29.55,East,89,4.0,12.0,99,0.08,,,2.18,weatherlink.com 1.10,2013-03-24 16:03:00,
2013-03-24 12:18:00,57.9,58.0,29.54,WSW,255,3.0,9.0,99,0.01,,,2.18,weatherlink.com 1.10,2013-03-24 16:18:00,
2013-03-24 12:33:00,58.0,58.0,29.54,West,269,0.0,8.0,99,0.00,,,2.18,weatherlink.com 1.10,2013-03-24 16:33:00,
2013-03-24 12:48:00,58.3,58.0,29.52,SSW,193,1.0,6.0,99,0.00,,,2.18,weatherlink.com 1.10,2013-03-24 16:48:00,
2013-03-24 13:03:00,58.6,58.0,29.51,ENE,64,2.0,14.0,99,0.00,,,2.18,weatherlink.com 1.10,2013-03-24 17:03:00,
2013-03-24 13:18:00,59.5,59.0,29.51,ENE,72,7.0,11.0,99,0.00,,,2.18,weatherlink.com 1.10,2013-03-24 17:18:00,
2013-03-24 13:33:00,59.5,59.0,29.49,WSW,250,3.0,10.0,98,0.00,,,2.18,weatherlink.com 1.10,2013-03-24 17:33:00,
2013-03-24 13:48:00,60.3,60.0,29.49,SSE,165,0.0,7.0,99,0.00,,,2.18,weatherlink.com 1.10,2013-03-24 17:48:00,
2013-03-24 14:03:00,61.2,61.0,29.48,SSE,166,1.0,7.0,98,0.00,,,2.18,weatherlink.com 1.10,2013-03-24 18:03:00,
2013-03-24 14:19:00,61.3,61.0,29.47,SW,219,6.0,9.0,98,0.00,,,2.18,weatherlink.com 1.10,2013-03-24 18:19:00,
2013-03-24 14:34:00,61.6,61.0,29.46,East,84,1.0,5.0,98,0.00,,,2.18,weatherlink.com 1.10,2013-03-24 18:34:00,
2013-03-24 14:49:00,62.2,62.0,29.44,WSW,243,1.0,5.0,98,0.08,,,2.26,weatherlink.com 1.10,2013-03-24 18:49:00,
2013-03-24 15:04:00,62.8,63.0,29.45,SW,219,0.0,2.0,99,0.08,,,2.26,weatherlink.com 1.10,2013-03-24 19:04:00,
2013-03-24 15:19:00,63.1,63.0,29.45,WSW,248,0.0,1.0,99,0.08,,,2.26,weatherlink.com 1.10,2013-03-24 19:19:00,
2013-03-24 15:34:00,63.0,63.0,29.45,NW,305,1.0,2.0,98,0.08,,,2.26,weatherlink.com 1.10,2013-03-24 19:34:00,
2013-03-24 15:49:00,62.9,62.0,29.45,WNW,284,1.0,4.0,98,0.00,,,2.26,weatherlink.com 1.10,2013-03-24 19:49:00,
2013-03-24 16:04:00,61.8,61.0,29.46,NW,321,1.0,5.0,97,0.00,,,2.26,weatherlink.com 1.10,2013-03-24 20:04:00,
2013-03-24 16:19:00,59.6,59.0,29.46,SW,233,0.0,4.0,97,0.00,,,2.26,weatherlink.com 1.10,2013-03-24 20:19:00,
2013-03-24 16:34:00,57.8,57.0,29.46,NW,321,3.0,8.0,97,0.00,,,2.26,weatherlink.com 1.10,2013-03-24 20:34:00,
2013-03-24 16:49:00,55.4,55.0,29.47,NW,311,2.0,5.0,97,0.00,,,2.26,weatherlink.com 1.10,2013-03-24 20:49:00,
2013-03-24 17:04:00,54.2,53.0,29.48,North,352,3.0,5.0,97,0.00,,,2.26,weatherlink.com 1.10,2013-03-24 21:04:00,
2013-03-24 17:19:00,52.9,52.0,29.49,NW,305,2.0,5.0,97,0.00,,,2.26,weatherlink.com 1.10,2013-03-24 21:19:00,
2013-03-24 17:34:00,51.7,51.0,29.50,NW,307,1.0,7.0,98,0.00,,,2.26,weatherlink.com 1.10,2013-03-24 21:34:00,
2013-03-24 17:49:00,50.8,50.0,29.52,WNW,301,1.0,5.0,98,0.00,,,2.26,weatherlink.com 1.10,2013-03-24 21:49:00,
2013-03-24 18:04:00,50.3,50.0,29.52,WSW,246,2.0,10.0,98,0.00,,,2.26,weatherlink.com 1.10,2013-03-24 22:04:00,
2013-03-24 18:19:00,49.6,49.0,29.54,West,277,2.0,5.0,98,0.00,,,2.26,weatherlink.com 1.10,2013-03-24 22:19:00,
2013-03-24 18:34:00,48.9,48.0,29.54,WNW,284,2.0,5.0,98,0.00,,,2.26,weatherlink.com 1.10,2013-03-24 22:34:00,
2013-03-24 18:49:00,48.5,48.0,29.55,SE,132,2.0,5.0,98,0.00,,,2.26,weatherlink.com 1.10,2013-03-24 22:49:00,
2013-03-24 19:04:00,47.8,47.0,29.55,NNW,335,2.0,7.0,98,0.00,,,2.26,weatherlink.com 1.10,2013-03-24 23:04:00,
2013-03-24 19:19:00,47.2,47.0,29.57,NNW,338,2.0,6.0,98,0.00,,,2.26,weatherlink.com 1.10,2013-03-24 23:19:00,
2013-03-24 19:34:00,47.1,47.0,29.57,SW,226,3.0,5.0,98,0.00,,,2.26,weatherlink.com 1.10,2013-03-24 23:34:00,
2013-03-24 19:49:00,46.8,46.0,29.58,WSW,249,0.0,6.0,98,0.00,,,2.26,weatherlink.com 1.10,2013-03-24 23:49:00,
2013-03-24 20:04:00,46.3,46.0,29.58,NE,48,1.0,6.0,98,0.00,,,2.26,weatherlink.com 1.10,2013-03-25 00:04:00,
2013-03-24 20:19:00,46.1,46.0,29.60,NW,314,1.0,4.0,98,0.00,,,2.26,weatherlink.com 1.10,2013-03-25 00:19:00,
2013-03-24 20:34:00,46.0,46.0,29.60,SW,218,1.0,3.0,98,0.00,,,2.26,weatherlink.com 1.10,2013-03-25 00:34:00,
2013-03-24 20:49:00,46.0,46.0,29.61,WSW,255,1.0,4.0,98,0.00,,,2.26,weatherlink.com 1.10,2013-03-25 00:49:00,
2013-03-24 21:04:00,45.6,45.0,29.61,NW,326,1.0,7.0,98,0.00,,,2.26,weatherlink.com 1.10,2013-03-25 01:04:00,
2013-03-24 21:19:00,45.3,45.0,29.63,West,278,0.0,4.0,98,0.00,,,2.26,weatherlink.com 1.10,2013-03-25 01:19:00,
2013-03-24 21:34:00,45.2,45.0,29.63,SW,236,0.0,3.0,98,0.00,,,2.26,weatherlink.com 1.10,2013-03-25 01:34:00,
2013-03-24 21:49:00,45.0,45.0,29.63,NW,306,0.0,3.0,98,0.00,,,2.26,weatherlink.com 1.10,2013-03-25 01:49:00,
2013-03-24 22:04:00,44.9,44.0,29.64,West,277,0.0,3.0,98,0.00,,,2.26,weatherlink.com 1.10,2013-03-25 02:04:00,
2013-03-24 22:19:00,44.7,44.0,29.64,West,278,1.0,4.0,98,0.00,,,2.26,weatherlink.com 1.10,2013-03-25 02:19:00,
2013-03-24 22:34:00,44.7,44.0,29.63,WNW,302,0.0,4.0,98,0.00,,,2.26,weatherlink.com 1.10,2013-03-25 02:34:00,
2013-03-24 22:49:00,44.5,44.0,29.61,WNW,284,1.0,3.0,98,0.00,,,2.26,weatherlink.com 1.10,2013-03-25 02:49:00,
2013-03-24 23:20:00,43.8,43.0,29.59,WNW,300,0.0,5.0,98,0.00,,,2.26,weatherlink.com 1.10,2013-03-25 03:20:00,
2013-03-24 23:35:00,43.8,43.0,29.59,NNW,328,1.0,7.0,98,0.00,,,2.26,weatherlink.com 1.10,2013-03-25 03:35:00,
2013-03-24 23:50:00,43.9,44.0,29.61,ESE,106,1.0,2.0,99,0.00,,,2.26,weatherlink.com 1.10,2013-03-25 03:50:00,